Flag for Japan Weather past 2 weeks in Sapporo, Japan

Now
80 °F

Warm.


Feels Like: 80 °F
Forecast: 60 / 79 °F
Wind: 10 mph from Southeast

Location: Sapporo

Current Time: Sep 2, 2014 at 1:36:07 PM

Latest Report: Sep 2, 2014 at 1:00 PM


Visibility: N/A

Pressure: 29.99 "Hg

Humidity: 48%

Dew point: 58 °F

Location of SapporoLocation

Historic Weather in Sapporo — Graph

°F

Sapporo temperature yesterday

Maximum temperature yesterday: 80 °F (at 1:00 PM)
Minimum temperature yesterday: 59 °F (at 6:00 AM)
Average temperature yesterday: 70 °F

Past Weeks' High & Low Weather Summary

 TemperatureHumidityPressure
High83 °F (Aug 23, 1:00 PM)95% (Aug 20, 5:00 AM)30.09 "Hg (Aug 20, 5:00 AM)
Low58 °F (Aug 27, 6:00 AM)29% (Aug 30, 3:00 PM)29.68 "Hg (Aug 24, 3:00 PM)
Average70 °F70%29.93 "Hg
* Reported Aug 18 11:00 AM — Sep 2 11:00 AM, Sapporo, Weather by CustomWeather, © 2014

Note: Actual official high and low records may vary slightly from our data, if they occured in-between our weather recording intervals... More about our weather records

Advertising

Sapporo weather history for previous 24 hours

 ConditionsComfort  
Time TempWeatherWind HumidityBarometerVisibility
11:00 AM
Sep 2
79 °FWarm.10 mph42%30.02 "HgN/A
10:00 AM75 °FMild.7 mph57%30.03 "HgN/A
9:00 AM74 °FScattered clouds.9 mph65%30.03 "Hg19 mi
8:00 AM70 °FMild.5 mph69%30.04 "HgN/A
7:00 AM67 °FMild.5 mph69%30.03 "HgN/A
6:00 AM63 °FScattered clouds.3 mph72%30.03 "Hg12 mi
5:00 AM63 °FMild.7 mph72%30.03 "HgN/A
4:00 AM63 °FMild.1 mph72%30.02 "HgN/A
3:00 AM64 °FPassing clouds.10 mph69%30.02 "Hg12 mi
2:00 AM64 °FMild.10 mph67%30.03 "HgN/A
1:00 AM65 °FMild.7 mph66%30.03 "HgN/A
12:00 AM66 °FMild.12 mph62%30.04 "HgN/A
11:00 PM
Sep 1
66 °FMild.9 mph58%30.03 "HgN/A
10:00 PM67 °FMild.9 mph57%30.03 "HgN/A
9:00 PM69 °FClear.7 mph58%30.03 "Hg19 mi
8:00 PM71 °FMild.7 mph47%30.03 "HgN/A
7:00 PM72 °FMild.6 mph64%30.01 "HgN/A
6:00 PM73 °FPassing clouds.10 mph63%29.99 "Hg19 mi
5:00 PM76 °FMild.10 mph60%29.98 "HgN/A
4:00 PM78 °FWarm.7 mph57%29.98 "HgN/A
3:00 PM78 °FPassing clouds.8 mph55%29.98 "Hg19 mi
2:00 PM80 °FWarm.10 mph52%29.98 "HgN/A
1:00 PM80 °FWarm.10 mph52%30.00 "HgN/A
Weather by CustomWeather, © 2014

See weather overviewHow to use our weather pages